Meteopurmerend
purmerend
Purmerend - Baaienwijk



My webcam  My webcam


Onweer radar Meer informatie blitzortung!


Regen radar Meer informatie rain snow radar


Bezoek onze andere website:

CandyAppleRed WebdesignWebdesign Purmerend Candy Apple Red

MeteopurmerendBlog

Template documentation
and downloads



We konden geen weer-waarchuwingen ophalen. Ga rechtstreeks naar de Meteoalarm site : www.meteoalarm.eu en controleer daar .

15 daagse weersverwachting Stockholm, Huddinge (SE)

  • Overzicht
  • Per uur
  • 15 dagen
  • Extra
  • Vergelijk
  • Kaarten
  • Dagkaart
  • Meer »
  • Info
  • Statistieken
  • Directe link
    Temp 6h Neerslag Wind  
 04:31     21:19    Daglengte: 16:48 Vandaag
14:00
21°
 
6
20:00
18°
0.3 mm
4
 04:33     21:17    Daglengte: 16:44 Morgen
02:00
15°
 
4
08:00
16°
 
6
14:00
17°
12.5 mm
5
warningclass
20:00
18°
2.1 mm
4
 04:36     21:14    Daglengte: 16:38 Zaterdag 31 Jul
02:00
15°
 
2
08:00
17°
 
3
14:00
20°
16.6 mm
4
20:00
18°
10.1 mm
3
 04:38     21:12    Daglengte: 16:34 Zondag 01 Aug
02:00
15°
4.4 mm
3
08:00
16°
 
4
Locatie info
Region: Stockholms län
Latitude: 59.1464°N
Longitude: 18.0594°E
33 masl
Postcode: 141 60
Temp/Neerslag /Baro Onweer/Dauwpunt
    Temp Baro 1h Neerslag Dauwpunt Wind UV Bewolking  
 04:31     21:19    Daglengte: 16:48 Vandaag
12:00
22°
1000.8 hPa   12.7°
5
Windvlaag: 9.3 m/s
12%
13:00
22°
1000.1 hPa
19%
14.4°
6
Windvlaag: 10 m/s
4%
14:00
21°
999.6 hPa
19%
17.7°
6
Windvlaag: 10.7 m/s
12%
15:00
21°
999.0 hPa
19%
15.5°
6
Windvlaag: 10.2 m/s
12%
16:00
21°
998.5 hPa
23%
14.1°
7
Windvlaag: 8.8 m/s
10%
17:00
21°
998.3 hPa 0.3 mm
25%
14.6°
6
Windvlaag: 8.8 m/s
9%
18:00
20°
997.8 hPa
28%
15.2°
6
Windvlaag: 6.5 m/s
15%
19:00
19°
997.5 hPa
19%
14.1°
5
Windvlaag: 6.4 m/s
3%
20:00
18°
997.3 hPa
31%
14.9°
4
Windvlaag: 5.5 m/s
4%
21:00
17°
997.4 hPa
26%
13.7°
4
Windvlaag: 4.3 m/s
1%
22:00
16°
997.3 hPa
13%
12.2°
5
Windvlaag: 6.3 m/s
1%
23:00
16°
997.1 hPa
17%
10.3°
5
Windvlaag: 5.9 m/s
8%
 04:33     21:17    Daglengte: 16:44 Morgen
00:00
16°
996.6 hPa
17%
10.3°
5
Windvlaag: 5.1 m/s
9%
01:00
16°
996.2 hPa
16%
10.5°
4
Windvlaag: 6.1 m/s
6%
02:00
15°
995.7 hPa
15%
11.3°
4
Windvlaag: 6.2 m/s
27%
03:00
15°
995.1 hPa
14%
11.2°
4
Windvlaag: 6.3 m/s
6%
04:00
15°
994.5 hPa
15%
11.2°
5
Windvlaag: 6.3 m/s
15%
05:00
15°
993.9 hPa
15%
11.3°
5
Windvlaag: 6.5 m/s
23%
06:00
15°
993.4 hPa
20%
13.0°
5
Windvlaag: 7 m/s
18%
07:00
15°
993.0 hPa
22%
13.6°
6
Windvlaag: 7.7 m/s
40%
08:00
16°
992.4 hPa
69%
13.9°
6
Windvlaag: 7.8 m/s
63%
09:00
16°
992.0 hPa
82%
14.0°
5
Windvlaag: 8.1 m/s
47%
10:00
15°
991.5 hPa 1.2 mm
82%
14.1°
6
Windvlaag: 8.7 m/s
86%
11:00
15°
991.1 hPa 2.4 mm
82%
14.2°
6
Windvlaag: 9.2 m/s
86%
12:00
15°
990.6 hPa 2.8 mm
82%
14.3°
5
Windvlaag: 11.2 m/s
85%
13:00
16°
990.0 hPa 3.3 mm
82%
14.7°
5
Windvlaag: 11.1 m/s
85%
14:00
17°
989.5 hPa 2.9 mm
82%
14.7°
5
Windvlaag: 9.9 m/s
83% warningclass
15:00
17°
989.2 hPa 2.1 mm
82%
13.6°
4
Windvlaag: 7.4 m/s
67%
16:00
18°
989.4 hPa
45%
13.8°
3
Windvlaag: 4.5 m/s
21%
17:00
19°
989.9 hPa
25%
14.5°
4
Windvlaag: -1.6 m/s
15%
18:00
19°
990.8 hPa
21%
14.8°
5
Windvlaag: -3.5 m/s
16%
19:00
19°
991.5 hPa
17%
13.7°
4
Windvlaag: -3.6 m/s
9%
20:00
18°
992.2 hPa
18%
13.3°
4
Windvlaag: -1.5 m/s
6%
21:00
17°
993.0 hPa
14%
13.3°
2
Windvlaag: -0.2 m/s
7%
22:00
16°
993.6 hPa
14%
14.4°
2
Windvlaag: 0.2 m/s
14%
23:00
16°
994.1 hPa
14%
15.2°
2
Windvlaag: 0.9 m/s
14%
 04:36     21:14    Daglengte: 16:38 Zaterdag 31 Jul
00:00
16°
994.7 hPa
14%
15.0°
3
Windvlaag: 1.1 m/s
19%
01:00
15°
995.1 hPa
14%
14.9°
2
Windvlaag: 1 m/s
10%
02:00
15°
995.5 hPa
14%
14.6°
2
Windvlaag: 0.6 m/s
14%
03:00
15°
995.8 hPa
14%
14.6°
2
Windvlaag: 1.1 m/s
40%
04:00
15°
996.0 hPa
14%
14.8°
2
Windvlaag: 0.6 m/s
15%
05:00
15°
996.4 hPa
21%
14.4°
3
Windvlaag: -0.5 m/s
33%
06:00
15°
996.6 hPa
21%
14.9°
3
Windvlaag: 0.1 m/s
57%
07:00
16°
996.9 hPa
21%
15.4°
3
Windvlaag: 3.5 m/s
81%
08:00
17°
997.1 hPa
21%
15.5°
3
Windvlaag: 3.3 m/s
86%
09:00
17°
997.3 hPa
25%
15.9°
3
Windvlaag: 3.4 m/s
84%
10:00
18°
997.6 hPa
35%
15.6°
3
Windvlaag: 3.8 m/s
90%
11:00
19°
997.8 hPa 3.4 mm
89%
15.3°
4
Windvlaag: 3.9 m/s
90%
12:00
20°
997.7 hPa 3.8 mm
100%
15.2°
4
Windvlaag: 5.7 m/s
94%
13:00
20°
997.6 hPa 4.9 mm
100%
15.1°
4
Windvlaag: 7 m/s
91% warningclass
14:00
20°
997.5 hPa 4.6 mm
100%
14.5°
4
Windvlaag: 7.1 m/s
57%
15:00
21°
997.2 hPa
56%
14.7°
4
Windvlaag: 8.4 m/s
30%
16:00
21°
997.1 hPa 3.4 mm
100%
15.1°
5
Windvlaag: 9.5 m/s
69% warningclass
17:00
20°
997.2 hPa 2.2 mm
100%
14.4°
6
Windvlaag: 9.3 m/s
82% warningclass
18:00
18°
996.9 hPa
96%
16.7°
4
Windvlaag: 8.8 m/s
83%
19:00
18°
996.4 hPa
98%
14.2°
3
Windvlaag: 5.3 m/s
73%
20:00
18°
996.2 hPa 4.4 mm
90%
13.9°
3
Windvlaag: 6.2 m/s
80%
21:00
17°
996.0 hPa 4.4 mm
100%
15.5°
3
Windvlaag: 5.8 m/s
79% warningclass
22:00
17°
995.6 hPa
99%
16.0°
2
Windvlaag: 4.7 m/s
71%
23:00
17°
995.4 hPa
82%
16.2°
2
Windvlaag: 2.9 m/s
87%
 04:38     21:12    Daglengte: 16:34 Zondag 01 Aug
00:00
16°
995.2 hPa
37%
15.4°
2
Windvlaag: 1.7 m/s
58%
01:00
16°
995.1 hPa
35%
14.6°
2
Windvlaag: 0.8 m/s
47%
02:00
15°
994.8 hPa
32%
14.5°
3
Windvlaag: 2.1 m/s
59%
03:00
14°
994.1 hPa
33%
13.2°
2
Windvlaag: 6.4 m/s
53%
04:00
14°
994.1 hPa
41%
13.0°
3
Windvlaag: 6.6 m/s
100%
05:00
15°
994.5 hPa
48%
14.2°
3
Windvlaag: 6.8 m/s
99%
06:00
15°
994.6 hPa
50%
14.4°
3
Windvlaag: 5.4 m/s
93%
07:00
16°
995.0 hPa
95%
14.5°
4
Windvlaag: 8.1 m/s
88%
08:00
16°
995.4 hPa
46%
14.6°
4
Windvlaag: 7.7 m/s
83%
09:00
17°
993.9 hPa 15.0 mm
100%
13.9°
4
Windvlaag: 6.5 m/s
100%
10:00
19°
994.2 hPa 15.0 mm
100%
13.3°
4
Windvlaag: 6.4 m/s
68%
11:00
20°
994.7 hPa 15.0 mm
100%
12.3°
4
Windvlaag: 5.9 m/s
42%
Temp/Neerslag /Baro Onweer/Dauwpunt
    Temp Baro Neerslag Dauwpunt Wind Bewolking  
 04:31     21:19    Daglengte: 16:48 Vandaag
14:00
21°
999.6 hPa   17.7°
6
12%
17:00
21°
998.3 hPa 0.3 mm 14.6°
6
9%
20:00
18°
997.3 hPa   14.9°
4
4%
23:00
16°
997.1 hPa   10.3°
5
8%
 04:33     21:17    Daglengte: 16:44 Morgen
02:00
15°
995.7 hPa   11.3°
4
27%
05:00
15°
993.9 hPa   11.3°
5
23%
08:00
16°
992.4 hPa   13.9°
6
63%
11:00
15°
991.1 hPa 3.6 mm 14.2°
6
86%
14:00
17°
989.5 hPa 8.9 mm 14.7°
5
83% warningclass
17:00
19°
989.9 hPa 2.1 mm 14.5°
4
15%
20:00
18°
992.2 hPa   13.3°
4
6%
23:00
16°
994.1 hPa   15.2°
2
14%
 04:36     21:14    Daglengte: 16:38 Zaterdag 31 Jul
02:00
15°
995.5 hPa   14.6°
2
14%
05:00
15°
996.4 hPa   14.4°
3
33%
08:00
17°
997.1 hPa   15.5°
3
86%
11:00
19°
997.8 hPa 3.4 mm 15.3°
4
90%
14:00
20°
997.5 hPa 13.2 mm 14.5°
4
57%
17:00
20°
997.2 hPa 5.7 mm 14.4°
6
82% warningclass
20:00
18°
996.2 hPa 4.4 mm 13.9°
3
80%
23:00
17°
995.4 hPa 4.4 mm 16.2°
2
87% warningclass
 04:38     21:12    Daglengte: 16:34 Zondag 01 Aug
02:00
15°
994.8 hPa   14.5°
3
59%
05:00
15°
994.5 hPa   14.2°
3
99%
08:00
16°
995.4 hPa   14.6°
4
83%
11:00
20°
994.7 hPa 45.0 mm 12.3°
4
42%
14:00
21°
995.3 hPa 45.0 mm 12.7°
3
91%
17:00
19°
1000.7 hPa 17.0 mm 9.2°
3
1%
20:00
17°
1001.8 hPa 17.1 mm 9.3°
3
0%
23:00
14°
1003.6 hPa 17.1 mm 8.3°
3
0%
 04:40     21:09    Daglengte: 16:29 Maandag 02 Aug
02:00
13°
1004.7 hPa 17.1 mm 8.7°
3
0%
05:00
12°
1005.5 hPa 17.1 mm 8.7°
3
0%
08:00
15°
1006.3 hPa 17.1 mm 6.9°
3
0%
11:00
18°
1006.9 hPa 17.1 mm 5.1°
2
0%
14:00
19°
1007.1 hPa 17.1 mm 4.7°
2
0%
17:00
19°
1007.6 hPa 17.1 mm 4.8°
1
0%
20:00
17°
1008.0 hPa 17.1 mm 8.8°
2
0%
23:00
15°
1009.0 hPa 17.2 mm 10.1°
3
1%
 04:42     21:07    Daglengte: 16:25 Dinsdag 03 Aug
02:00
15°
1009.3 hPa 17.8 mm 12.2°
2
1%
05:00
14°
1009.7 hPa 19.5 mm 11.8°
1
1%
08:00
16°
1010.3 hPa 20.0 mm 12.1°
1
1%
11:00
18°
1010.7 hPa 21.4 mm 10.4°
1
1%
14:00
18°
1010.7 hPa 24.0 mm 12.7°
2
1%
17:00
19°
1010.4 hPa 25.9 mm 14.3°
2
1%
20:00
17°
1010.5 hPa 27.0 mm 14.3°
3
1%
23:00
16°
1010.8 hPa 28.0 mm 13.7°
3
1%
 04:45     21:05    Daglengte: 16:20 Woensdag 04 Aug
02:00
15°
1010.5 hPa 28.2 mm 13.5°
2
1%
05:00
15°
1010.1 hPa 28.5 mm 13.7°
2
1%
08:00
17°
1010.7 hPa 28.6 mm 14.7°
2
1%
11:00
21°
1011.0 hPa 28.6 mm 10.4°
3
0%
14:00
21°
1011.4 hPa 29.1 mm 8.5°
2
0%
17:00
20°
1012.1 hPa 30.7 mm 11.7°
0
1%
20:00
19°
1012.5 hPa 31.0 mm 13.3°
1
0%
23:00
16°
1013.2 hPa 31.0 mm 13.1°
0
0%
 04:47     21:02    Daglengte: 16:15 Donderdag 05 Aug
02:00
15°
1013.6 hPa 31.0 mm 12.9°
0
0%
05:00
14°
1013.8 hPa 31.1 mm 12.1°
2
1%
08:00
17°
1014.0 hPa 31.1 mm 12.0°
2
1%
11:00
21°
1014.1 hPa   10.7°
2
1%
14:00
21°
1013.7 hPa 62.2 mm 10.0°
3
1%
20:00
19°
1013.5 hPa 62.3 mm 11.9°
3
1%
 04:49     21:00    Daglengte: 16:11 Vrijdag 06 Aug
02:00
15°
1014.1 hPa 62.9 mm 11.5°
2
1%
08:00
18°
1014.2 hPa 63.1 mm 11.6°
2
1%
14:00
21°
1014.4 hPa 63.1 mm 10.1°
3
0%
20:00
19°
1014.3 hPa 63.1 mm 12.6°
2
1%
 04:51     20:57    Daglengte: 16:06 Zaterdag 07 Aug
02:00
18°
1015.0 hPa 63.1 mm 12.5°
1
1%
08:00
19°
1015.3 hPa 63.1 mm 12.6°
0
1%
14:00
22°
1015.6 hPa 63.1 mm 9.8°
1
1%
20:00
19°
1015.6 hPa 63.1 mm 12.0°
2
1%
 04:54     20:54    Daglengte: 16:00 Zondag 08 Aug
02:00
16°
1015.6 hPa 63.1 mm 11.5°
1
1%
08:00
17°
1007.9 hPa 1.2 mm 12.9°
0
63%
14:00
20°
1008.4 hPa 1.5 mm 13.1°
2
68%
20:00
18°
1009.0 hPa 1.4 mm 13.9°
2
75%
 04:56     20:52    Daglengte: 15:56 Maandag 09 Aug
02:00
16°
1009.7 hPa 1.9 mm 13.6°
2
66%
08:00
17°
1009.7 hPa 1.5 mm 13.4°
1
62%
14:00
20°
1010.2 hPa 0.7 mm 12.7°
2
56%
20:00
19°
1010.3 hPa 0.8 mm 13.7°
2
61%
 04:58     20:49    Daglengte: 15:51 Dinsdag 10 Aug
02:00
16°
1011.3 hPa 0.7 mm 13.4°
2
58%
08:00
17°
1011.5 hPa 0.7 mm 13.3°
2
66%
14:00
20°
1012.0 hPa 0.9 mm 12.9°
2
60%
20:00
18°
1011.6 hPa 0.7 mm 13.4°
2
66%
 05:00     20:47    Daglengte: 15:47 Woensdag 11 Aug
02:00
16°
1012.3 hPa 0.4 mm 13.0°
2
60%
08:00
17°
1012.7 hPa 0.7 mm 13.0°
2
62%
14:00
21°
1013.0 hPa 0.8 mm 12.4°
2
63%
20:00
19°
1012.6 hPa 0.8 mm 13.1°
1
57%
 05:03     20:44    Daglengte: 15:41 Donderdag 12 Aug
02:00
16°
1013.3 hPa 0.5 mm 12.6°
2
40%
08:00
17°
1013.4 hPa 0.4 mm 12.6°
1
45%
14:00
20°
1013.4 hPa 0.5 mm 11.6°
2
46%
20:00
18°
1012.9 hPa 0.4 mm 13.0°
2
47%
 05:05     20:41    Daglengte: 15:36 Vrijdag 13 Aug
02:00
16°
1013.1 hPa 0.2 mm 12.9°
1
42%
08:00
17°
1013.1 hPa 0.1 mm 12.5°
1
43%
  CAPE Lifted Index Hail Supercell Tornado SRH 3km CL BTM PRES CL TOP PRES Swiss DWD icon SMHI TS
 04:31     21:19    Daglengte: 16:48 Vandaag
12:00 165 J/kg 0.4 K 0 % 0 % 0 % 0 m²/s² 0 0 3.58 2
13:00 225 J/kg 0.4 K 0 % 0 % 0 % 0 m²/s² 0 0 3.94 2
14:00 334 J/kg -0.1 K 0 % 0 % 0 % 0 m²/s² 0 0 3.08 2
15:00 405 J/kg -0.7 K 0 % 0 % 0 % 0 m²/s² 0 0 1.76 2
16:00 487 J/kg -1.3 K 0 % 0 % 0 % 0 m²/s² 0 0 1.94 2
17:00 462 J/kg -0.9 K 0 % 0 % 0 % 0 m²/s² 0 0 1.32 2
18:00 374 J/kg -0.8 K 0 % 0 % 0 % 0 m²/s² 0 0 1.3 1
19:00 205 J/kg 0.3 K 0 % 0 % 0 % 0 m²/s² 0 0 3.09 1
20:00 467 J/kg -2.2 K 0 % 0 % 0 % 0 m²/s² 0 0 -0.13 2
21:00 273 J/kg -1.4 K 0 % 0 % 0 % 0 m²/s² 0 0 0.37 0
22:00 0 J/kg 0.2 K 0 % 0 % 0 % 0 m²/s² 0 0 2.21 1
23:00 214 J/kg -1.3 K 0 % 0 % 0 % 0 m²/s² 0 0 -0.49 1
 04:33     21:17    Daglengte: 16:44 Morgen
00:00 265 J/kg -1.3 K 0 % 0 % 0 % 0 m²/s² 0 0 -0.76 0
01:00 2 J/kg 0.1 K 0 % 0 % 0 % 0 m²/s² 0 0 1.39 0
02:00 199 J/kg -1.4 K 0 % 0 % 0 % 0 m²/s² 0 0 0.34 3
03:00 102 J/kg -1.1 K 0 % 0 % 0 % 0 m²/s² 0 0 0.94 1
04:00 45 J/kg -0.7 K 0 % 0 % 0 % 0 m²/s² 0 0 2.15 3
05:00 219 J/kg -1.4 K 0 % 0 % 0 % 0 m²/s² 0 0 0.94 3
06:00 133 J/kg -0.9 K 0 % 0 % 0 % 0 m²/s² 0 0 0.3 3
07:00 83 J/kg 0.4 K 0 % 0 % 0 % 0 m²/s² 0 0 0.7 3
08:00 78 J/kg 0.5 K 0 % 0 % 0 % 0 m²/s² 0 0 0.68 3
09:00 246 J/kg -0.3 K 0 % 0 % 0 % 0 m²/s² 0 0 -0.09 80
10:00 275 J/kg -0.7 K 0 % 0 % 0 % 0 m²/s² 0 0 -0.49 80
11:00 359 J/kg -1.3 K 0 % 0 % 0 % 0 m²/s² 0 0 -1 80
12:00 103 J/kg -0.5 K 0 % 0 % 0 % 0 m²/s² 0 0 0.37 80
13:00 319 J/kg -1.6 K 0 % 0 % 0 % 0 m²/s² 0 0 -0.01 80
14:00 566 J/kg -2.7 K 0 % 0 % 0 % 0 m²/s² 0 0 -0.99 95
15:00 615 J/kg -2.9 K 0 % 0 % 0 % 0 m²/s² 0 0 -1.01 80
16:00 322 J/kg -0.9 K 0 % 0 % 0 % 0 m²/s² 0 0 1.53 2
17:00 95 J/kg 1.5 K 0 % 0 % 0 % 0 m²/s² 0 0 4.17 1
18:00 102 J/kg 2.4 K 0 % 0 % 0 % 0 m²/s² 0 0 6.51 2
19:00 86 J/kg 2.3 K 0 % 0 % 0 % 0 m²/s² 0 0 5.93 0
20:00 44 J/kg 1.7 K 0 % 0 % 0 % 0 m²/s² 0 0 4.04 2
21:00 3 J/kg 1.4 K 0 % 0 % 0 % 0 m²/s² 0 0 3.56 0
22:00 1 J/kg -0.1 K 0 % 0 % 0 % 0 m²/s² 0 0 2.33 0
23:00 0 J/kg 0.0 K 0 % 0 % 0 % 0 m²/s² 0 0 1.83 0
 04:36     21:14    Daglengte: 16:38 Zaterdag 31 Jul
00:00 0 J/kg -0.9 K 0 % 0 % 0 % 0 m²/s² 0 0 1.53 1
01:00 0 J/kg -1.0 K 0 % 0 % 0 % 0 m²/s² 0 0 2.15 2
02:00 22 J/kg -1.0 K 0 % 0 % 0 % 0 m²/s² 0 0 1.34 1
03:00 42 J/kg -1.9 K 0 % 0 % 0 % 0 m²/s² 0 0 -0.01 3
04:00 0 J/kg -2.3 K 0 % 0 % 0 % 0 m²/s² 0 0 -0.47 45
05:00 0 J/kg -2.0 K 0 % 0 % 0 % 0 m²/s² 0 0 -0.41 3
06:00 0 J/kg -1.2 K 0 % 0 % 0 % 0 m²/s² 0 0 0.03 1
07:00 7 J/kg -0.3 K 0 % 0 % 0 % 0 m²/s² 0 0 0.9 3
08:00 0 J/kg -0.3 K 0 % 0 % 0 % 0 m²/s² 0 0 1.11 3
09:00 0 J/kg -0.5 K 0 % 0 % 0 % 0 m²/s² 0 0 1.45 3
10:00 36 J/kg -1.2 K 0 % 0 % 0 % 0 m²/s² 0 0 1.5 3
11:00 281 J/kg -1.6 K 0 % 0 % 0 % 0 m²/s² 0 0 1.04 3
12:00 333 J/kg -1.9 K 0 % 0 % 0 % 0 m²/s² 0 0 0.44 80
13:00 362 J/kg -1.7 K 0 % 0 % 0 % 0 m²/s² 0 0 0.52 95
14:00 516 J/kg -2.5 K 0 % 0 % 0 % 0 m²/s² 0 0 -0.7 80
15:00 710 J/kg -3.1 K 0 % 0 % 0 % 0 m²/s² 0 0 -1.87 2
16:00 844 J/kg -3.7 K 0 % 0 % 0 % 0 m²/s² 0 0 -2.8 2
17:00 963 J/kg -4.1 K 0 % 0 % 0 % 0 m²/s² 0 0 -3.62 2
18:00 192 J/kg -0.9 K 0 % 0 % 0 % 0 m²/s² 0 0 -0.51 3
19:00 25 J/kg -1.6 K 0 % 0 % 0 % 0 m²/s² 0 0 -1 3
20:00 66 J/kg -1.8 K 0 % 0 % 0 % 0 m²/s² 0 0 -0.12 3
21:00 706 J/kg -3.7 K 0 % 0 % 0 % 0 m²/s² 0 0 -2.83 3
22:00 1088 J/kg -4.4 K 0 % 0 % 0 % 0 m²/s² 0 0 -3.05 3
23:00 805 J/kg -3.9 K 0 % 0 % 0 % 0 m²/s² 0 0 -3.21 3
 04:38     21:12    Daglengte: 16:34 Zondag 01 Aug
00:00 598 J/kg -4.8 K 0 % 0 % 0 % 0 m²/s² 0 0 -3.45 3
01:00 968 J/kg -5.0 K 0 % 0 % 0 % 0 m²/s² 0 0 -3.38 2
02:00 527 J/kg -2.7 K 0 % 0 % 0 % 0 m²/s² 0 0 -1.02 2
03:00 0 J/kg -1.3 K 0 % 0 % 0 % 0 m²/s² 0 0 0.26 3
04:00 151 J/kg -1.2 K 0 % 0 % 0 % 0 m²/s² 0 0 0.09 3
05:00 100 J/kg -0.8 K 0 % 0 % 0 % 0 m²/s² 0 0 0.43 3
06:00 0 J/kg -0.8 K 0 % 0 % 0 % 0 m²/s² 0 0 0.31 3
07:00 36 J/kg -0.7 K 0 % 0 % 0 % 0 m²/s² 0 0 -0.13 3
08:00 50 J/kg -0.1 K 0 % 0 % 0 % 0 m²/s² 0 0 0.32 3
09:00 134 J/kg -0.2 K 0 % 0 % 0 % 0 m²/s² 0 0 0.49
10:00 101 J/kg -0.1 K 0 % 0 % 0 % 0 m²/s² 0 0 1.4
11:00 71 J/kg -0.2 K 0 % 0 % 0 % 0 m²/s² 0 0 1.54
Temp Baro Wind Neerslag
  EWN Forecast EWN WRFDA DWD ICON FMI HIRLAM MET Norway GFS
 04:31     21:19    Daglengte: 16:48 Vandaag
14:00 21.1° 999.6 hPa 5.7 m/s 0.0 mm 22.1° 999.4 hPa 6.9 m/s 0.0 mm 22.0° 999.3 hPa 5.0 m/s -1.9 mm 20.6° 999.6 hPa 5.3 m/s 0.0 mm 22.7° 999.2 hPa 6.9 m/s
17:00 20.9° 998.3 hPa 6.2 m/s 0.3 mm 22.5° 998.0 hPa 7.2 m/s 0.0 mm 20.9° 998.6 hPa 5.0 m/s 0.2 mm 21.2° 997.7 hPa 6.5 m/s 0.0 mm 22.4° 997.9 hPa 6.2 m/s
20:00 17.7° 997.3 hPa 4.4 m/s 0.0 mm 18.9° 997.3 hPa 4.2 m/s 0.2 mm 18.3° 997.6 hPa 3.6 m/s 0.0 mm 17.3° 996.8 hPa 5.7 m/s 0.0 mm 19.5° 997.8 hPa 6.2 m/s
23:00 16.1° 997.1 hPa 4.8 m/s 0.0 mm 15.8° 997.2 hPa 4.1 m/s 0.2 mm 15.1° 997.1 hPa 2.6 m/s 0.0 mm 17.0° 996.7 hPa 5.4 m/s 0.0 mm 15.4° 997.6 hPa 5.0 m/s
 04:33     21:17    Daglengte: 16:44 Morgen
02:00 15.3° 995.7 hPa 4.4 m/s 0.0 mm 12.3° 995.9 hPa 3.3 m/s 0.2 mm 13.9° 995.8 hPa 2.8 m/s 0.0 mm 16.1° 994.9 hPa 4.4 m/s 0.0 mm 13.9° 996.6 hPa 4.8 m/s
05:00 14.5° 993.9 hPa 4.7 m/s 0.0 mm 12.7° 993.6 hPa 2.5 m/s 0.2 mm 13.2° 994.1 hPa 3.0 m/s 0.0 mm 15.9° 992.6 hPa 5.0 m/s 0.0 mm 12.7° 995.1 hPa 4.8 m/s
08:00 15.5° 992.4 hPa 5.7 m/s 0.0 mm 14.0° 992.7 hPa 4.7 m/s 1.8 mm 15.7° 992.5 hPa 4.7 m/s 0.0 mm 15.3° 991.2 hPa 5.7 m/s 0.0 mm 13.7° 993.5 hPa 5.6 m/s
11:00 15.2° 991.1 hPa 5.6 m/s 3.6 mm 14.8° 991.2 hPa 6.4 m/s 12.6 mm 15.2° 991.6 hPa 4.3 m/s 2.5 mm 15.0° 988.1 hPa 5.2 m/s 0.0 mm 14.7° 992.4 hPa 7.8 m/s
14:00 17.0° 989.5 hPa 4.8 m/s 8.9 mm 18.4° 990.1 hPa 6.6 m/s 29.3 mm 17.1° 990.8 hPa 4.3 m/s 2.0 mm 17.4° 988.2 hPa 2.9 m/s 0.0 mm 17.7° 992.0 hPa 3.9 m/s
17:00 19.0° 989.9 hPa 4.2 m/s 2.1 mm 19.4° 990.7 hPa 6.2 m/s 29.5 mm 19.1° 990.4 hPa 3.3 m/s 0.2 mm 19.8° 988.5 hPa 3.8 m/s 0.0 mm 19.6° 992.3 hPa 4.4 m/s
20:00 18.5° 992.2 hPa 3.5 m/s 0.0 mm 18.6° 991.9 hPa 3.3 m/s 29.5 mm 18.6° 992.4 hPa 1.9 m/s 0.0 mm 18.5° 991.1 hPa 3.7 m/s 0.0 mm 19.0° 993.1 hPa 4.0 m/s
23:00 15.7° 994.1 hPa 2.4 m/s 0.0 mm 15.8° 993.5 hPa 4.1 m/s 29.5 mm 15.5° 994.2 hPa 2.1 m/s 0.0 mm 15.0° 993.4 hPa 1.9 m/s 0.0 mm 16.1° 995.0 hPa 3.8 m/s
 04:36     21:14    Daglengte: 16:38 Zaterdag 31 Jul
02:00 15.0° 995.5 hPa 2.2 m/s 0.0 mm 15.2° 994.9 hPa 4.3 m/s 29.5 mm 14.3° 995.6 hPa 1.3 m/s 0.0 mm 14.7° 994.4 hPa 1.5 m/s 0.0 mm 15.5° 996.3 hPa 4.6 m/s
05:00 14.6° 996.4 hPa 3.1 m/s 0.0 mm 14.4° 995.2 hPa 3.7 m/s 29.5 mm 13.8° 996.9 hPa 1.4 m/s 0.0 mm 15.4° 997.8 hPa 4.8 m/s
08:00 16.9° 997.1 hPa 3.0 m/s 0.0 mm 16.3° 995.6 hPa 3.1 m/s 29.5 mm 17.4° 997.8 hPa 1.8 m/s 0.0 mm 16.6° 998.7 hPa 4.3 m/s
11:00 19.0° 997.8 hPa 3.5 m/s 3.4 mm 19.0° 996.7 hPa 3.9 m/s 29.5 mm 19.3° 998.4 hPa 2.6 m/s 0.2 mm 17.9° 999.8 hPa 3.9 m/s
14:00 20.5° 997.5 hPa 4.2 m/s 13.2 mm 21.0° 996.6 hPa 4.3 m/s 29.6 mm 18.6° 998.6 hPa 2.8 m/s 5.1 mm 20.9° 999.3 hPa 4.0 m/s
17:00 19.7° 997.2 hPa 6.1 m/s 5.7 mm 20.8° 996.7 hPa 6.7 m/s 29.9 mm 19.9° 997.7 hPa 3.6 m/s 0.2 mm 20.6° 998.4 hPa 5.7 m/s
20:00 18.0° 996.2 hPa 3.5 m/s 4.4 mm 18.0° 995.3 hPa 3.6 m/s 37.7 mm 17.7° 996.3 hPa 2.8 m/s 0.1 mm 17.7° 996.5 hPa 5.1 m/s
23:00 16.8° 995.4 hPa 2.0 m/s 4.4 mm 17.2° 994.5 hPa 2.1 m/s 39.9 mm 16.2° 995.3 hPa 2.4 m/s 0.3 mm 16.0° 995.6 hPa 4.2 m/s
 04:38     21:12    Daglengte: 16:34 Zondag 01 Aug
02:00 15.1° 994.8 hPa 2.5 m/s 0.0 mm 14.2° 993.4 hPa 2.5 m/s 44.8 mm 15.0° 994.6 hPa 2.1 m/s 0.0 mm 15.2° 994.8 hPa 4.9 m/s
05:00 14.9° 994.5 hPa 3.1 m/s 0.0 mm 13.7° 993.2 hPa 3.3 m/s 44.8 mm 15.2° 994.8 hPa 3.1 m/s 0.0 mm 14.9° 995.0 hPa 4.4 m/s
08:00 16.4° 995.4 hPa 3.9 m/s 0.0 mm 15.8° 993.1 hPa 4.7 m/s 44.9 mm 16.6° 995.9 hPa 3.6 m/s 0.0 mm 15.4° 995.7 hPa 5.6 m/s
11:00 19.7° 994.7 hPa 4.0 m/s 45.0 mm 19.7° 994.7 hPa 4.0 m/s 45.0 mm 17.0° 997.5 hPa 5.3 m/s
14:00 21.2° 995.3 hPa 2.9 m/s 45.0 mm 21.2° 995.3 hPa 2.9 m/s 45.0 mm 17.6° 999.3 hPa 3.7 m/s
17:00 18.9° 1000.7 hPa 3.2 m/s 17.0 mm 19.0° 1000.7 hPa 3.2 m/s 17.0 mm
20:00 17.1° 1001.8 hPa 2.8 m/s 17.1 mm 17.1° 1001.8 hPa 2.8 m/s 17.1 mm
23:00 13.6° 1003.6 hPa 3.1 m/s 17.1 mm 13.6° 1003.6 hPa 3.1 m/s 17.1 mm
 04:40     21:09    Daglengte: 16:29 Maandag 02 Aug
02:00 12.8° 1004.7 hPa 2.8 m/s 17.1 mm 12.8° 1004.7 hPa 2.8 m/s 17.1 mm
05:00 11.8° 1005.5 hPa 2.6 m/s 17.1 mm 11.8° 1005.5 hPa 2.6 m/s 17.1 mm
08:00 14.7° 1006.3 hPa 2.8 m/s 17.1 mm 14.7° 1006.3 hPa 2.8 m/s 17.1 mm
11:00 18.0° 1006.9 hPa 2.4 m/s 17.1 mm 18.0° 1006.9 hPa 2.4 m/s 17.1 mm
14:00 19.5° 1007.1 hPa 1.9 m/s 17.1 mm 19.5° 1007.1 hPa 1.9 m/s 17.1 mm
17:00 19.1° 1007.6 hPa 1.4 m/s 17.1 mm 19.1° 1007.6 hPa 1.4 m/s 17.1 mm
20:00 16.7° 1008.0 hPa 2.2 m/s 17.1 mm 16.7° 1008.0 hPa 2.2 m/s 17.1 mm
23:00 15.3° 1009.0 hPa 2.7 m/s 17.2 mm 15.3° 1009.0 hPa 2.7 m/s 17.2 mm
 04:42     21:07    Daglengte: 16:25 Dinsdag 03 Aug
02:00 14.9° 1009.3 hPa 2.3 m/s 17.8 mm 14.9° 1009.3 hPa 2.3 m/s 17.8 mm
05:00 14.1° 1009.7 hPa 1.3 m/s 19.5 mm 14.1° 1009.7 hPa 1.3 m/s 19.5 mm
08:00 15.5° 1010.3 hPa 0.7 m/s 20.0 mm 15.5° 1010.3 hPa 0.7 m/s 20.0 mm
11:00 18.3° 1010.7 hPa 0.7 m/s 21.4 mm 18.3° 1010.7 hPa 0.7 m/s 21.4 mm
14:00 17.9° 1010.7 hPa 2.2 m/s 24.0 mm 17.9° 1010.7 hPa 2.2 m/s 24.0 mm
17:00 18.8° 1010.4 hPa 2.3 m/s 25.9 mm 18.8° 1010.4 hPa 2.3 m/s 25.9 mm
20:00 17.0° 1010.5 hPa 3.0 m/s 27.0 mm 17.0° 1010.5 hPa 3.0 m/s 27.0 mm
23:00 15.7° 1010.8 hPa 2.6 m/s 28.0 mm 15.7° 1010.8 hPa 2.6 m/s 28.0 mm
 04:45     21:05    Daglengte: 16:20 Woensdag 04 Aug
02:00 15.3° 1010.5 hPa 2.0 m/s 28.2 mm 15.3° 1010.5 hPa 2.0 m/s 28.2 mm
05:00 15.0° 1010.1 hPa 1.5 m/s 28.5 mm 15.0° 1010.1 hPa 1.5 m/s 28.5 mm
08:00 17.4° 1010.7 hPa 2.5 m/s 28.6 mm 17.4° 1010.7 hPa 2.5 m/s 28.6 mm
11:00 20.5° 1011.0 hPa 2.8 m/s 28.6 mm 20.5° 1011.0 hPa 2.7 m/s 28.6 mm
14:00 20.9° 1011.4 hPa 1.9 m/s 29.1 mm 20.9° 1011.4 hPa 1.9 m/s 29.1 mm
17:00 19.9° 1012.1 hPa 0.1 m/s 30.7 mm 19.9° 1012.1 hPa 0.1 m/s 30.7 mm
20:00 18.6° 1012.5 hPa 0.9 m/s 31.0 mm 18.6° 1012.5 hPa 0.9 m/s 31.0 mm
23:00 15.8° 1013.2 hPa 0.4 m/s 31.0 mm 15.8° 1013.2 hPa 0.4 m/s 31.0 mm
 04:47     21:02    Daglengte: 16:15 Donderdag 05 Aug
02:00 14.8° 1013.6 hPa 0.1 m/s 31.0 mm 14.8° 1013.6 hPa 0.1 m/s 31.0 mm
05:00 13.9° 1013.8 hPa 1.8 m/s 31.1 mm 13.9° 1013.8 hPa 1.8 m/s 31.1 mm
08:00 17.4° 1014.0 hPa 1.7 m/s 31.1 mm 17.4° 1014.0 hPa 1.7 m/s 31.1 mm
11:00 20.9° 1014.1 hPa 2.0 m/s 31.1 mm 20.9° 1014.1 hPa 2.0 m/s 31.1 mm
14:00 20.8° 1013.7 hPa 2.7 m/s 31.1 mm 20.8° 1013.7 hPa 2.7 m/s 31.1 mm
20:00 18.7° 1013.5 hPa 2.9 m/s 31.2 mm 18.7° 1013.5 hPa 2.9 m/s 31.2 mm
 04:49     21:00    Daglengte: 16:11 Vrijdag 06 Aug
02:00 15.0° 1014.1 hPa 2.1 m/s 31.5 mm 15.0° 1014.1 hPa 2.1 m/s 31.5 mm
08:00 17.7° 1014.2 hPa 1.6 m/s 31.5 mm 17.7° 1014.2 hPa 1.6 m/s 31.5 mm
14:00 20.5° 1014.4 hPa 3.2 m/s 31.5 mm 20.5° 1014.4 hPa 3.2 m/s 31.5 mm
20:00 18.8° 1014.3 hPa 2.2 m/s 31.5 mm 18.8° 1014.3 hPa 2.2 m/s 31.5 mm
 04:51     20:57    Daglengte: 16:06 Zaterdag 07 Aug
02:00 17.7° 1015.0 hPa 0.8 m/s 31.5 mm 17.7° 1015.0 hPa 0.8 m/s 31.5 mm
08:00 18.5° 1015.3 hPa 0.4 m/s 31.6 mm 18.5° 1015.3 hPa 0.4 m/s 31.6 mm
14:00 22.3° 1015.6 hPa 1.4 m/s 31.6 mm 22.3° 1015.6 hPa 1.4 m/s 31.6 mm
20:00 18.9° 1015.6 hPa 1.8 m/s 31.6 mm 18.9° 1015.6 hPa 1.8 m/s 31.6 mm
 04:54     20:54    Daglengte: 16:00 Zondag 08 Aug
02:00 16.1° 1015.6 hPa 1.4 m/s 31.6 mm 16.1° 1015.6 hPa 1.4 m/s 31.6 mm
08:00 16.9° 1007.9 hPa 0.4 m/s 1.2 mm
14:00 19.8° 1008.4 hPa 2.2 m/s 1.5 mm
20:00 18.0° 1009.0 hPa 1.8 m/s 1.4 mm
 04:56     20:52    Daglengte: 15:56 Maandag 09 Aug
02:00 16.1° 1009.7 hPa 1.6 m/s 1.9 mm
08:00 17.1° 1009.7 hPa 1.3 m/s 1.5 mm
14:00 20.4° 1010.2 hPa 2.5 m/s 0.7 mm
20:00 18.5° 1010.3 hPa 1.8 m/s 0.8 mm
 04:58     20:49    Daglengte: 15:51 Dinsdag 10 Aug
02:00 15.9° 1011.3 hPa 2.0 m/s 0.7 mm
08:00 16.9° 1011.5 hPa 2.2 m/s 0.7 mm
14:00 20.1° 1012.0 hPa 2.3 m/s 0.9 mm
20:00 18.4° 1011.6 hPa 2.0 m/s 0.7 mm
 05:00     20:47    Daglengte: 15:47 Woensdag 11 Aug
02:00 16.0° 1012.3 hPa 1.7 m/s 0.4 mm
08:00 16.8° 1012.7 hPa 1.8 m/s 0.7 mm
14:00 20.7° 1013.0 hPa 2.0 m/s 0.8 mm
20:00 18.6° 1012.6 hPa 1.2 m/s 0.8 mm
 05:03     20:44    Daglengte: 15:41 Donderdag 12 Aug
02:00 15.8° 1013.3 hPa 2.1 m/s 0.5 mm
08:00 16.8° 1013.4 hPa 1.4 m/s 0.4 mm
14:00 20.3° 1013.4 hPa 2.2 m/s 0.5 mm
20:00 18.3° 1012.9 hPa 1.7 m/s 0.4 mm
 05:05     20:41    Daglengte: 15:36 Vrijdag 13 Aug
02:00 15.9° 1013.1 hPa 1.3 m/s 0.2 mm
08:00 17.3° 1013.1 hPa 1.2 m/s 0.1 mm
FMI Hirlam - 7.5 km EWN WRFDA - 12 km DWD ICON - 7 km GFS - 25 km Basiskaart






























































Updatetijd (Europe/Amsterdam) Resolutie Lengte Stap
FMI Hirlam 07:00, 13:00, 19:00, 01:00 7.5 km 49h 1h
EWN WRFDA 10:15, 16:15, 22:15, 04:15 12 km 73h 1h
DWD ICON 06:15, 12:15, 18:15, 00:15 7 km 75h 1h
GFS 08:15, 14:15, 20:15, 02:15 25 km 237h 3h
30+ mm
25-30 mm
20-25 mm
15-20 mm
10-15 mm
6-10 mm
4-6 mm
2-4 mm
1-2 mm
0.5-1 mm
0.2-0.5 mm
0.1-0.2 mm
30+ mm
25-30 mm
20-25 mm
15-20 mm
10-15 mm
6-10 mm
4-6 mm
2-4 mm
1-2 mm
0.5-1 mm
0.2-0.5 mm
0.1-0.2 mm
Sneeuwval
Natte sneeuw
Hagel
Vorst
30+ mm
25-30 mm
20-25 mm
15-20 mm
10-15 mm
6-10 mm
4-6 mm
2-4 mm
1-2 mm
0.5-1 mm
0.2-0.5 mm
0.1-0.2 mm
Sneeuwval
Natte sneeuw
Hagel
Vorst
Onweer
50 mm
40 mm
30 mm
26 mm
22 mm
18 mm
14 mm
10 mm
9 mm
8 mm
7 mm
6 mm
5 mm
4.5 mm
4 mm
3.5 mm
3 mm
2.5 mm
2 mm
1.5 mm
1 mm
0.8 mm
0.6 mm
0.4 mm
0.2 mm
0.05 mm
35°
30°
25°
20°
15°
10°
-5°
-10°
-15°
-20°
-25°
-30°
-35°
33> m/s
29 m/s
25 m/s
21 m/s
17 m/s
14 m/s
11 m/s
8 m/s
5 m/s
3 m/s
0 m/s
2600 J/kg
2400 J/kg
2200 J/kg
2000 J/kg
1800 J/kg
1600 J/kg
1400 J/kg
1200 J/kg
1000 J/kg
800 J/kg
600 J/kg